TimeEST,TemperatureF,Dew PointF,Humidity,Sea Level PressureIn,VisibilityMPH,Wind Direction,Wind SpeedMPH,Gust SpeedMPH,PrecipitationIn,Events,Conditions,WindDirDegrees,DateUTC
12:53 AM,68.0,66.0,93,30.08,7.0,South,5.8,-,N/A,,Overcast,170,2013-12-22 05:53:00
1:09 AM,68.0,66.2,94,30.08,7.0,South,5.8,-,N/A,,Overcast,180,2013-12-22 06:09:00
1:53 AM,68.0,66.0,93,30.08,7.0,South,5.8,-,N/A,,Overcast,180,2013-12-22 06:53:00
2:23 AM,66.2,66.2,100,30.08,6.0,South,5.8,-,N/A,,Overcast,180,2013-12-22 07:23:00
2:49 AM,68.0,66.2,94,30.08,6.0,South,5.8,-,N/A,,Overcast,190,2013-12-22 07:49:00
2:53 AM,66.9,66.0,97,30.07,6.0,South,5.8,-,N/A,,Overcast,180,2013-12-22 07:53:00
3:53 AM,68.0,66.0,93,30.07,8.0,South,6.9,-,N/A,,Overcast,190,2013-12-22 08:53:00
4:53 AM,68.0,66.0,93,30.06,8.0,South,8.1,-,N/A,,Overcast,180,2013-12-22 09:53:00
5:01 AM,68.0,64.4,88,30.06,9.0,South,8.1,-,N/A,,Mostly Cloudy,170,2013-12-22 10:01:00
5:53 AM,69.1,66.0,90,30.07,9.0,SSW,6.9,-,N/A,,Overcast,200,2013-12-22 10:53:00
6:53 AM,69.1,66.0,90,30.08,9.0,South,6.9,-,0.00,,Overcast,180,2013-12-22 11:53:00
7:53 AM,69.1,66.0,90,30.09,7.0,South,6.9,-,N/A,,Mostly Cloudy,170,2013-12-22 12:53:00
8:51 AM,71.6,66.2,83,30.09,8.0,South,8.1,17.3,N/A,,Mostly Cloudy,180,2013-12-22 13:51:00
8:53 AM,71.1,66.9,87,30.08,8.0,South,10.4,-,N/A,,Mostly Cloudy,180,2013-12-22 13:53:00
9:53 AM,73.9,66.9,79,30.10,10.0,SW,16.1,20.7,N/A,,Mostly Cloudy,220,2013-12-22 14:53:00
10:53 AM,77.0,66.0,69,30.12,10.0,SW,13.8,-,N/A,,Mostly Cloudy,220,2013-12-22 15:53:00
11:53 AM,78.1,64.9,64,30.10,10.0,SW,16.1,21.9,N/A,,Overcast,220,2013-12-22 16:53:00
12:53 PM,80.1,64.0,58,30.07,10.0,SSW,11.5,24.2,N/A,,Scattered Clouds,210,2013-12-22 17:53:00
1:53 PM,80.1,63.0,56,30.06,10.0,SSW,18.4,27.6,N/A,,Scattered Clouds,210,2013-12-22 18:53:00
2:53 PM,82.0,63.0,52,30.04,10.0,SSW,18.4,28.8,N/A,,Partly Cloudy,210,2013-12-22 19:53:00
3:53 PM,81.0,63.0,54,30.04,10.0,South,8.1,18.4,N/A,,Scattered Clouds,190,2013-12-22 20:53:00
4:53 PM,78.1,64.0,62,30.04,10.0,South,12.7,-,N/A,,Clear,180,2013-12-22 21:53:00
5:53 PM,73.9,64.0,71,30.07,10.0,South,5.8,-,N/A,,Clear,190,2013-12-22 22:53:00
6:53 PM,73.9,64.9,73,30.08,10.0,SSE,6.9,-,N/A,,Overcast,160,2013-12-22 23:53:00
7:53 PM,73.0,64.9,76,30.09,10.0,South,8.1,-,N/A,,Overcast,180,2013-12-23 00:53:00
8:53 PM,72.0,66.0,81,30.09,10.0,South,9.2,-,N/A,,Scattered Clouds,190,2013-12-23 01:53:00
9:53 PM,71.1,66.0,84,30.08,10.0,South,8.1,-,N/A,,Mostly Cloudy,180,2013-12-23 02:53:00
10:53 PM,70.0,66.0,87,30.09,10.0,South,9.2,-,N/A,,Mostly Cloudy,190,2013-12-23 03:53:00
11:53 PM,71.1,66.0,84,30.09,10.0,SSW,10.4,-,N/A,,Scattered Clouds,200,2013-12-23 04:53:00